www.pogodaiklimat.ru

Погода и климат >> Архив погоды >> Франция >> Оранж


ПОГОДА в Оранже

  • Прогноз погоды в Оранже
  • Монитор погоды в Оранже

АРХИВ ПОГОДЫ в Оранже

Время (UTC), дата Ветер
(напр.,м/с)
 
Видим.   Явления Облачность Т
(С)
Тd
(С)
f
(%)
Тe
(С)
Тes
(С)
Комфортность P
(гПа)
Po
(гПа)
Тmin
(С)
Tmax
(С)
R
(мм)
R24
(мм)
S
(см)
01 12.08 С 3 60 км 9/9 2000 м
[]
+19.5 +13.7 69 +21 +21 комфорт 1014.6 1008.2
02 12.08 С 4 60 км 10/10
[]
+19.0 +13.8 72 +20 +20 1014.3 1007.8
03 12.08 С 4
{13}
60 км 8/0
[]
+18.7 +13.5 72 +19 +19 1013.9 1007.4
04 12.08 С 5 60 км 9/9
[]
+18.7 +13.1 70 +19 +19 1014.3 1007.8
05 12.08 СЗ 4 60 км 10/5 1470 м
[]
+19.1 +12.1 64 +20 +20 1015.0 1008.5
06 12.08 С 4-14
{16}
40 км 10/0
[]
+19.0 +12.5 66 +20 +20 1015.3 1008.8 +18.5 +27.8
07 12.08 С 4-6
{8}
40 км н/о +20.4 +12.1 59 +22 +22 комфорт 1014.8 1008.4
08 12.08 С 5-7
{8}
40 км н/о +22.7 +12.3 52 +25 +25 комфорт 1014.8 1008.4
09 12.08 С 5-14
{16}
45 км 8/0
[]
+22.5 +12.4 53 +25 +26 комфорт 1015.1 1008.7
10 12.08 С 4 30 км 8/8
[]
+23.9 +13.1 51 +26 +28 жарко 1015.4 1009.0
11 12.08 С 5-7
{7}
35 км н/о +24.2 +13.4 51 +26 +26 жарко 1015.1 1008.8
12 12.08 С 5-8
{8}
27 км н/о +25.0 +12.6 46 +27 +27 жарко 1015.1 1008.8
13 12.08 С 5-7
{8}
22 км н/о +25.3 +12.2 44 +27 +27 жарко 1015.2 1008.9
14 12.08 С 5-7
{9}
17 км н/о +27.5 +11.9 38 +29 +29 жарко 1015.0 1008.7
15 12.08 С 5-8
{8}
14 км н/о +27.3 +12.1 39 +29 +29 жарко 1014.4 1008.1
16 12.08 С 4-7
{7}
12 км н/о +27.8 +10.9 35 +29 +29 жарко 1014.4 1008.1
17 12.08 С 4-7
{7}
13 км н/о +27.0 +11.1 37 +28 +28 жарко 1014.7 1008.4
18 12.08 С 4-6
{7}
55 км н/о +25.4 +10.4 39 +26 +26 жарко 1015.1 1008.8 +19.0 +28.1
19 12.08 С 3-5
{6}
60 км н/о +23.9 +10.9 44 +25 +25 комфорт 1015.9 1009.5
20 12.08 С 3-4
{5}
60 км н/о +22.8 +10.9 47 +25 +25 комфорт 1017.2 1010.8
21 12.08 С 4-6
{6}
60 км н/о +22.5 +10.9 48 +25 +25 комфорт 1017.5 1011.1
22 12.08 СЗ 3-5
{6}
60 км н/о +21.8 +12.1 54 +24 +24 комфорт 1017.9 1011.5
23 12.08 СЗ 3-4
{4}
60 км н/о +21.2 +10.1 49 +23 +23 комфорт 1018.0 1011.6
00 13.08 С 3-4
{5}
60 км н/о +20.5 +11.9 58 +23 +23 комфорт 1018.3 1011.8
01 13.08 СЗ 3-4
{5}
60 км н/о +19.7 +11.5 59 +21 +21 комфорт 1018.1 1011.6
02 13.08 СЗ 4-6
{6}
60 км н/о +19.6 +9.8 53 +21 +21 комфорт 1018.1 1011.6
03 13.08 СЗ 5-8
{8}
60 км н/о +19.0 +9.7 55 +20 +20 1018.2 1011.7
04 13.08 СЗ 4-6
{7}
60 км н/о +18.3 +9.9 58 +18 +18 1018.3 1011.8
05 13.08 СЗ 4-5
{6}
22 км н/о +18.0 +9.9 59 +18 +18 1018.1 1011.6
06 13.08 С 5-15
{15}
50 км н/о +19.1 +10.1 56 +20 +20 1017.7 1011.2 +17.4 +25.4
07 13.08 С 6-8
{9}
19 км н/о +20.3 +10.4 53 +22 +22 комфорт 1018.1 1011.6
08 13.08 С 6-9
{10}
15 км н/о +21.3 +10.1 49 +23 +23 комфорт 1017.7 1011.3
09 13.08 С 6-9
{11}
9000 м н/о +22.2 +9.7 45 +24 +24 комфорт 1017.7 1011.3
10 13.08 С 7-10
{10}
8000 м н/о +22.9 +9.3 42 +24 +24 комфорт 1017.2 1010.8
11 13.08 С 7-10
{11}
8000 м н/о +24.5 +9.2 38 +25 +25 комфорт 1016.5 1010.1
12 13.08 С 5-8
{11}
10 км н/о +24.3 +9.8 40 +25 +25 комфорт 1016.6 1010.2
13 13.08 С 7-9
{10}
10 км н/о +25.6 +9.0 35 +26 +26 жарко 1015.7 1009.4
14 13.08 С 7-10
{10}
7000 м н/о +25.9 +7.9 32 +26 +26 жарко 1015.1 1008.8
15 13.08 С 6-9
{10}
6000 м н/о +26.2 +8.2 32 +26 +26 жарко 1015.1 1008.8
16 13.08 С 10-16
{19}
6000 м н/о +25.7 +7.8 32 +26 +26 жарко 1015.1 1008.8
17 13.08 С 5-9
{10}
7000 м н/о +24.8 +7.4 33 +25 +25 комфорт 1015.2 1008.9
18 13.08 С 5-7
{9}
14 км н/о +23.6 +7.6 36 +24 +24 комфорт 1015.5 1009.1 +19.1 +26.8
19 13.08 С 5-8
{10}
60 км н/о +22.3 +7.7 39 +23 +23 комфорт 1016.1 1009.7
20 13.08 С 5-8
{9}
60 км н/о +21.6 +8.1 42 +23 +23 комфорт 1016.8 1010.4
21 13.08 С 5-7
{8}
60 км н/о +21.0 +8.3 44 +22 +22 комфорт 1017.0 1010.6
22 13.08 СЗ 4-7
{7}
60 км н/о +20.3 +8.3 46 +22 +22 комфорт 1017.2 1010.7
23 13.08 СЗ 5-7
{8}
60 км н/о +19.8 +8.2 47 +21 +21 комфорт 1017.4 1010.9
00 14.08 С 4-6
{8}
60 км н/о +19.4 +8.4 49 +20 +20 1017.5 1011.0
01 14.08 СЗ 4-6
{8}
60 км н/о +19.0 +7.7 48 +19 +19 1017.4 1010.9
02 14.08 СЗ 4-6
{7}
60 км н/о +18.6 +8.0 50 +19 +19 1016.9 1010.4
03 14.08 С 5-7
{7}
60 км н/о +18.1 +8.4 53 +18 +18 1016.3 1009.8
04 14.08 СЗ 5-7
{7}
60 км н/о +18.2 +7.3 49 +18 +18 1016.4 1009.9
05 14.08 С 2-3
{7}
50 км 8/8
[]
+17.6 +7.3 51 +18 +18 1016.6 1010.1
06 14.08 СЗ 3
{9}
35 км н/о +18.3 +8.0 51 +19 +19 1016.8 1010.3 +17.3 +23.5
07 14.08 С 4-6
{6}
30 км н/о +19.5 +7.6 46 +20 +20 1017.2 1010.7
08 14.08 С 6-8
{8}
50 км н/о +21.7 +7.9 41 +23 +23 комфорт 1016.7 1010.3
09 14.08 С 5-7
{9}
45 км н/о +24.3 +7.4 34 +25 +25 комфорт 1016.7 1010.3
10 14.08 С 6-9
{10}
25 км н/о +25.4 +7.0 31 +25 +25 комфорт 1016.3 1010.0
11 14.08 С 5-7
{8}
22 км н/о +26.3 +7.3 30 +26 +26 жарко 1016.0 1009.7
12 14.08 СЗ 6-8
{8}
18 км н/о +27.5 +7.4 28 +27 +27 жарко 1015.5 1009.2
13 14.08 СЗ 5-7
{9}
16 км н/о +28.2 +5.7 24 +27 +27 жарко 1015.5 1009.2
14 14.08 С 5-7
{8}
14 км н/о +28.9 +5.0 22 +27 +27 жарко 1014.8 1008.5
15 14.08 СЗ 5-7
{8}
12 км н/о +29.1 +4.5 21 +27 +27 жарко 1014.4 1008.1
16 14.08 С 4-6
{7}
13 км н/о +29.1 +5.2 22 +28 +28 жарко 1014.2 1007.9
17 14.08 С 5-6
{6}
15 км н/о +28.4 +5.9 24 +27 +27 жарко 1014.0 1007.7
18 14.08 С 3-6
{6}
29 км н/о +27.2 +6.6 27 +27 +27 жарко 1014.5 1008.2 +18.3 +29.8
19 14.08 С 3-4
{6}
60 км н/о +25.0 +7.2 32 +25 +25 комфорт 1014.7 1008.4
20 14.08 С 3-5
{5}
60 км н/о +23.7 +7.3 35 +24 +24 комфорт 1015.4 1009.0
21 14.08 С 3-4
{4}
60 км н/о +23.0 +7.9 38 +24 +24 комфорт 1015.8 1009.4
22 14.08 СЗ 2-3
{4}
60 км н/о +21.3 +7.9 42 +22 +22 комфорт 1016.1 1009.7
23 14.08 З 1-2
{2}
60 км н/о +20.1 +8.1 46 +22 +22 комфорт 1016.8 1010.3
00 15.08 С 1-2
{2}
60 км н/о +19.3 +8.3 49 +21 +21 комфорт 1016.8 1010.3
01 15.08 штиль 0-1
{2}
60 км н/о +18.6 +8.3 51 +19 +19 1016.6 1010.1
02 15.08 З 1-2
{2}
60 км н/о +17.3 +9.0 58 +18 +18 1017.1 1010.6
03 15.08 СЗ 1-1
{2}
60 км н/о +16.1 +8.8 62 +17 +17 1016.8 1010.3
04 15.08 СВ 2-2
{2}
55 км н/о +14.7 +8.4 66 +15 +15 1016.9 1010.3
05 15.08 С 2-1
{3}
50 км н/о +14.2 +9.0 71 +14 +14 1017.2 1010.6
06 15.08 штиль 0
{2}
60 км 9/0
[]
+17.6 +9.7 60 +18 +18 1017.3 1010.8 +14.2 +27.2
07 15.08 З 1-2
{2}
60 км 9/9
[]
+19.7 +10.7 56 +23 +23 комфорт 1017.3 1010.8
08 15.08 З 2-3
{3}
35 км н/о +21.9 +10.7 49 +24 +24 комфорт 1017.5 1011.1
09 15.08 СЗ 2-3
{3}
60 км н/о +26.9 +11.0 37 +28 +28 жарко 1017.3 1011.0
10 15.08 СЗ 2-3
{3}
55 км н/о +28.1 +12.0 37 +29 +29 жарко 1017.1 1010.8
11 15.08 С 2-4
{4}
60 км н/о +29.8 +11.8 33 +30 +30 жарко 1016.4 1010.2
12 15.08 С 1-4
{5}
55 км н/о +30.8 +11.7 31 +31 +31 жарко 1015.8 1009.6
13 15.08 С 3-5
{5}
35 км 8/8 2000 м
[]
+30.5 +11.9 32 +31 +34 жарко 1015.5 1009.3
14 15.08 СЗ 3-4
{5}
19 км н/о +31.5 +11.8 30 +32 +32 жарко 1015.0 1008.8
15 15.08 СЗ 3-4
{5}
50 км н/о +32.1 +11.8 29 +32 +32 жарко 1014.7 1008.5
16 15.08 С 4-5
{5}
25 км н/о +30.1 +12.1 33 +31 +31 жарко 1014.7 1008.5
17 15.08 С 3-6
{6}
60 км н/о +29.7 +11.7 33 +30 +30 жарко 1015.0 1008.8
18 15.08 С 5-7
{7}
40 км н/о +27.6 +12.0 38 +29 +29 жарко 1015.8 1009.5 +17.7 +32.2
19 15.08 С 4-6
{7}
60 км н/о +25.4 +12.3 44 +27 +27 жарко 1016.4 1010.1
20 15.08 С 4-5
{7}
60 км н/о +24.4 +11.4 44 +26 +26 жарко 1017.4 1011.0
21 15.08 С 3-5
{5}
60 км н/о +23.3 +10.7 45 +25 +25 комфорт 1017.7 1011.3
22 15.08 С 4-6
{6}
60 км н/о +22.7 +10.2 45 +25 +25 комфорт 1017.7 1011.3
23 15.08 СЗ 3-5
{6}
60 км н/о +21.9 +10.1 47 +24 +24 комфорт 1018.0 1011.6
00 16.08 СЗ 4-5
{6}
60 км н/о +21.0 +9.6 48 +23 +23 комфорт 1017.8 1011.4
01 16.08 С 4-5
{6}
60 км н/о +20.6 +9.5 49 +22 +22 комфорт 1018.0 1011.5
02 16.08 С 4-7
{7}
60 км н/о +20.5 +10.0 51 +22 +22 комфорт 1018.0 1011.5
03 16.08 СЗ 4-5
{7}
60 км н/о +19.9 +10.6 55 +21 +21 комфорт 1017.5 1011.0
04 16.08 СЗ 3-5
{6}
60 км н/о +19.2 +10.5 57 +20 +20 1017.4 1010.9
05 16.08 СЗ 4-5
{5}
45 км н/о +19.0 +10.5 58 +20 +20 1017.3 1010.8
06 16.08 С 4
{12}
11 км н/о +19.8 +10.8 56 +21 +21 комфорт 1017.7 1011.2 +18.8 +27.6
07 16.08 С 5-8
{8}
11 км н/о +21.4 +10.5 50 +23 +23 комфорт 1017.6 1011.2
08 16.08 С 4-7
{8}
16 км н/о +23.3 +11.0 46 +26 +26 жарко 1017.3 1010.9
09 16.08 С 4-6
{7}
17 км н/о +24.5 +10.7 42 +26 +26 жарко 1017.4 1011.0
10 16.08 С 4-5
{7}
26 км н/о +26.6 +10.3 36 +27 +27 жарко 1017.0 1010.7
11 16.08 С 3-4
{5}
30 км н/о +28.5 +9.2 30 +28 +28 жарко 1016.5 1010.2
12 16.08 С 2-4
{5}
35 км н/о +29.3 +8.4 27 +29 +29 жарко 1016.0 1009.7
13 16.08 СЗ 2-3
{4}
22 км н/о +30.0 +9.5 28 +30 +30 жарко 1015.5 1009.3
14 16.08 СЗ 2-4
{5}
19 км н/о +31.3 +8.3 24 +30 +30 жарко 1015.1 1008.9
15 16.08 СЗ 2-2
{4}
55 км н/о +31.9 +6.9 21 +30 +30 жарко 1014.6 1008.4
16 16.08 С 1-2
{2}
55 км н/о +32.0 +5.5 19 +30 +30 жарко 1014.2 1008.0
17 16.08 З 1-1
{3}
60 км н/о +31.1 +6.2 21 +29 +29 жарко 1013.9 1007.7
18 16.08 С 1-2
{2}
60 км н/о +29.8 +7.7 25 +29 +29 жарко 1014.1 1007.9 +19.8 +32.5
19 16.08 ЮЗ 1-2
{2}
55 км н/о +26.8 +10.9 37 +28 +28 жарко 1014.8 1008.5
20 16.08 ЮЗ 2-2
{2}
60 км н/о +23.9 +11.9 47 +26 +26 жарко 1015.6 1009.2
21 16.08 ЮВ 2-2
{2}
60 км н/о +20.4 +12.9 62 +23 +23 комфорт 1016.2 1009.8
22 16.08 ЮВ 2-2
{2}
55 км н/о +19.9 +12.4 62 +22 +22 комфорт 1016.7 1010.2
23 16.08 ЮВ 2-2
{3}
60 км н/о +20.4 +12.4 60 +23 +23 комфорт 1016.5 1010.1
00 17.08 ЮВ 1-2
{2}
55 км н/о +18.7 +12.4 67 +21 +21 комфорт 1016.5 1010.0
01 17.08 ЮВ 1-1
{1}
55 км н/о +17.4 +12.1 71 +19 +19 1016.4 1009.9
02 17.08 В 1-1
{2}
60 км н/о +16.1 +11.0 72 +18 +18 1016.2 1009.7
03 17.08 С 1-1
{1}
55 км н/о +14.7 +10.9 78 +16 +16 1016.7 1010.1
04 17.08 СВ 1-1
{1}
55 км н/о +14.0 +9.6 75 +14 +14 1016.7 1010.1
05 17.08 Ю 1-1
{2}
55 км н/о +13.9 +9.9 77 +15 +15 1016.6 1010.0
06 17.08 СЗ 1
{3}
55 км н/о +15.6 +11.6 77 +16 +16 1016.9 1010.3 +13.8 +29.7
07 17.08 С 1-1
{1}
50 км н/о +18.8 +10.9 60 +21 +21 комфорт 1016.8 1010.3
08 17.08 Ю 1-1
{1}
55 км н/о +22.6 +11.9 51 +25 +25 комфорт 1016.7 1010.3
09 17.08 Ю 1-2
{2}
19 км н/о +24.7 +13.3 49 +27 +27 жарко 1017.0 1010.6
10 17.08 Ю 1-2
{2}
55 км н/о +27.6 +11.6 37 +29 +29 жарко 1016.5 1010.2
11 17.08 Ю 2-3
{3}
60 км н/о +30.4 +10.9 30 +31 +31 жарко 1016.1 1009.9
12 17.08 Ю 2-4
{4}
45 км н/о +31.5 +12.3 31 +32 +32 жарко 1015.4 1009.2
13 17.08 Ю 2-4
{4}
40 км н/о +32.1 +11.3 28 +32 +32 жарко 1014.9 1008.7
14 17.08 Ю 3-4
{5}
35 км н/о +32.8 +12.4 29 +33 +33 жарко 1014.4 1008.2
15 17.08 Ю 3-4
{4}
35 км н/о +32.4 +15.0 35 +34 +34 очень
жарко
1014.2 1008.0
16 17.08 Ю 3-4
{5}
30 км н/о +31.9 +14.5 35 +34 +34 душно 1014.1 1007.9
17 17.08 Ю 3-4
{4}
35 км н/о +30.8 +10.7 29 +31 +31 жарко 1013.9 1007.7
18 17.08 Ю 3-4
{4}
40 км н/о +29.0 +12.8 37 +30 +30 жарко 1014.3 1008.1 +15.6 +33.1
19 17.08 Ю 2-2
{4}
35 км н/о +25.9 +18.6 64 +31 +31 очень
душно
1014.8 1008.5
20 17.08 Ю 2-3
{4}
19 км н/о +23.8 +20.1 80 +29 +29 душно 1015.7 1009.4
21 17.08 ЮВ 1-2
{2}
16 км н/о +22.8 +20.1 85 +29 +29 очень
душно
1016.0 1009.6
22 17.08 ЮВ 2-2
{2}
8000 м 9/9 630 м
[]
+23.1 +20.1 83 +30 +30 очень
душно
1016.1 1009.7
23 17.08 В 1-1
{2}
8000 м н/о +21.1 +18.8 87 +25 +25 комфорт 1016.1 1009.7
00 18.08 Ю 1-1
{1}
6000 м н/о +20.2 +18.9 92 +25 +25 комфорт 1015.9 1009.5
01 18.08 В 1-1
{2}
7000 м н/о +19.0 +17.8 93 +22 +22 комфорт 1015.4 1008.9
02 18.08 штиль 0-1
{1}
6000 м н/о +18.3 +17.3 94 +19 +19 1015.2 1008.7
03 18.08 В 1-1
{1}
6000 м н/о +17.5 +16.7 95 +19 +19 1014.8 1008.3
04 18.08 В 1-1
{1}
5000 м 8/8
[]
+18.1 +17.5 96 +20 +20 1014.4 1007.9
05 18.08 штиль 0-1
{1}
12 км н/о +17.2 +16.1 93 +17 +17 1014.4 1007.9
06 18.08 ЮВ 1
{1}
15 км н/о +19.4 +17.5 89 +23 +23 комфорт 1014.7 1008.3 +17.0 +29.0
07 18.08 СВ 1-1
{1}
19 км н/о +22.7 +17.2 71 +28 +28 душно 1015.1 1008.7
08 18.08 Ю 2-3
{3}
40 км н/о +25.8 +17.7 61 +30 +30 душно 1015.0 1008.7
09 18.08 Ю 2-4
{4}
45 км н/о +27.5 +17.4 54 +32 +32 очень
душно
1015.1 1008.8
10 18.08 Ю 2-4
{4}
30 км н/о +28.3 +18.7 56 +33 +33 очень
душно
1014.9 1008.7
11 18.08 Ю 2-4
{4}
28 км н/о +30.1 +17.5 47 +34 +34 очень
душно
1014.6 1008.4
12 18.08 Ю 3-5
{5}
28 км н/о +31.5 +16.7 41 +35 +35 очень
душно
1014.1 1007.9
13 18.08 ЮЗ 2-4
{5}
29 км н/о +32.1 +16.0 38 +35 +35 очень
душно
1013.7 1007.5
14 18.08 Ю 3-5
{5}
29 км н/о +32.6 +14.2 33 +34 +34 очень
жарко
1013.3 1007.1
15 18.08 ЮЗ 3-5
{5}
19 км н/о +31.4 +16.9 42 +35 +35 очень
душно
1012.9 1006.7
16 18.08 ЮЗ 4-6
{6}
26 км н/о +30.4 +14.5 38 +32 +32 жарко 1013.2 1007.0
17 18.08 ЮЗ 3-4
{6}
27 км н/о +29.0 +16.5 47 +32 +32 душно 1013.2 1007.0
18 18.08 ЮЗ 3-4
{5}
45 км н/о +26.3 +16.8 56 +30 +30 душно 1013.6 1007.3 +19.5 +33.0
19 18.08 Ю 2-3
{4}
50 км н/о +24.7 +16.9 62 +28 +28 душно 1014.0 1007.7
20 18.08 ЮЗ 2-4
{4}
40 км н/о +23.7 +18.6 73 +28 +28 душно 1015.2 1008.9
21 18.08 Ю 1-2
{3}
26 км н/о +22.8 +19.2 80 +29 +29 очень
душно
1015.7 1009.3
22 18.08 В 1-1
{2}
29 км н/о +20.2 +17.8 86 +24 +24 комфорт 1016.2 1009.8
23 18.08 В 1-2
{2}
28 км н/о +19.6 +17.9 90 +23 +23 комфорт 1016.1 1009.7
00 19.08 В 1-1
{1}
25 км н/о +19.4 +17.7 90 +23 +23 комфорт 1016.0 1009.6

 

Местоположение метеостанции Оранж (Франция): широта 44.13 долгота 4.83 высота над уровнем моря 55 м.

В архиве по умолчанию представлена погода в Оранже за последнюю неделю. Архивные данные за месяц целиком и за предыдущие месяцы, начиная с января 2011 года, Вы можете получить, выбрав интересующий диапазон дат из раскрывающегося списка и нажав кнопку "Ввод!".


*Определитесь, кто Вы:
робот инопланетянин человек

Внимание! Время в таблицах - всемирное. Для получения местного времени необходимо прибавить поправку, которая равна 1 ч.

Смотрите также архив погоды в соседних городах и на ближайших метеорологических станциях:

Погода в Карпентрасе (Франция) (18 км)
Погода в Авиньон (Франция) (25 км)
Погода в Ним аэропорту (Франция) (45 км)
Погода в Монтелимаре (Франция) (51 км)
Погода в Ниме (Франция) (54 км)
Погода в Обене (Франция) (58 км)
Погода в Салон-де-Провансе (Франция) (63 км)
Погода в Истре (Франция) (68 км)
Погода в Мариньяне (Франция) (82 км)
Погода на Ла Куроне (Франция) (91 км)

Пояснения к столбцам:

Ветер - указаны скорость ветра в м/с - средняя за 10 мин, порывы в срок и между сроками (в фигурных скобках) и направление, откуда дует ветер: С - северный, СВ - северо-восточный, В - восточный, ЮВ - юго-восточный, Ю - южный, ЮЗ - юго-западный, З - западный, СЗ - северо-западный.
Видимость - горизонтальная дальность видимости в метрах или километрах. При видимости от 1 до 10 км при отсутствии осадков обычно наблюдается дымка, при ухудшении видимости до 1 км и менее - туман. В сухую погоду видимость может ухудшаться дымом, пылью или мглою.
Явления - указаны атмосферные явления, наблюдавшиеся в срок или в последний час перед сроком; фигурными скобками обозначены явления, наблюдавшиеся между сроками (за 1-3 часа до срока); квадратными скобками обозначены град или гололедные отложения с указанием их диаметра в мм.
Облачность - указаны через наклонную черту общая и нижняя облачность в баллах и высота нижней границы облаков в метрах; квадратными скобками обозначены формы облаков: Ci - перистые, Cs - перисто-слоистые, Cc - перисто-кучевые, Ac - высококучевые, As - высокослоистые, Sc - слоисто-кучевые, Ns - слоисто-дождевые, Cu - кучевые, Cb - кучево-дождевые. Подробнее классификацию облаков см. в Атласе облаков (PDF).
T - Температура воздуха - температура, измеренная на высоте 2 м над землей.
Td - Температура точки росы - температура, при понижении до которой содержащийся в воздухе водяной пар достигнет насыщения.
f - Относительная влажность воздуха - влажноcть воздуха, измеренная на высоте 2 м над землей.
Te - Эффективная температура - температура, которую ощущает одетый по сезону человек в тени. Характеристика душности погоды. При расчете учитывается влияние влажности воздуха и скорости ветра на теплоощущения человека.
Tes - Эффективная температура на солнце - температура, которую ощущает человек, с поправкой на солнечный нагрев. Характеристика знойности погоды. Зависит от высоты солнца над горизонтом, облачности и скорости ветра. Ночью, в пасмурную погоду, а также при ветре 12 м/с и более поправка равна нулю.
P - Атмосферное давление - приведенное к уровню моря атмосферное давление.
Po - Атмосферное давление - измеренное на уровне метеостанции атмосферное давление.
Tmin - Минимальная температура - минимум температуры воздуха на высоте 2 м над землей.
Tmax - Максимальная температура - максимум температуры воздуха на высоте 2 м над землей.
R - Количество осадков - Количество выпавших осадков за период времени, мм. При наведении курсора мыши на число - период времени, за который выпало указанное количество осадков.
R24 - Количество осадков - Количество выпавших осадков за 24 часа, мм.
S - Снежный покров - Высота снежного покрова, см. При наведении курсора мыши на число - состояние снежного покрова и степень покрытия местности в баллах.